sat.trackr.live / text

‹ back to catalog

STARLINK-35049

NORAD 65444 · 2025-194L

PAYLOAD ACTIVE UNKNOWN

§ Identity

Operator
Country
US
Launch date
2025-09-03
Launch site
AFWTR
Launch vehicle
Mass (kg)
RCS (m²)

Purposes: comms

External: N2YO · Heavens-Above · Gunter

§ Orbital elements

Epoch: 2026-05-25T02:10:32.407104Z

Period
95.64 min
Inclination
97.4509°
Eccentricity
0.0002047
Mean motion
15.05660808 rev/d
Perigee alt
548.1 km
Apogee alt
550.9 km
Semi-major
6,927.6 km
B*
2.5146e-4
RAAN
359.3140°
Arg perigee
96.0478°
Mean anomaly
264.0982°
Rev number
4,114

§ Raw data

STARLINK-350491 65444U 25194L   26145.09065286  .00003573  00000+0  25146-3 0  99962 65444  97.4509 359.3140 0002047  96.0478 264.0982 15.05660808 41141

JSON: /api/v1/satellites/65444 · /tle

For live sub-satellite position, see the globe view (requires WebGL).

§ Visibility from observer

Set your observer location to see the next 7 days of passes ≥ 10°. The values pass through the URL so the page stays shareable.

No JS? Fill the form by hand. The geolocation button needs JavaScript.